Regional Weather Roundup
Issued by NWS

Home | Current Version | Previous Version | Text Only | Print | Product List | Glossary Off
Versions: 1 2 3 4 5 6 7 8 9 10 11 12 13 14 15 16 17 18 19 20 21 22 23 24 25 26 27 28 29 30 31 32 33 34 35 36 37 38 39 40 41 42 43 44 45 46 47 48 49 50

000
ASUS43 KDMX 060401
RWRIA

WEATHER ROUNDUP FOR IOWA
NATIONAL WEATHER SERVICE DES MOINES IA
1000 PM CST MON DEC 05 2016

NOTE: "FAIR" INDICATES FEW OR NO CLOUDS BELOW 12,000 FEET WITH NO
SIGNIFICANT WEATHER AND/OR OBSTRUCTIONS TO VISIBILITY.

* - THESE STATIONS ARE NOT NWS STATIONS...THUS NOT UNDER NWS
QUALITY CONTROL.  THEY ALSO DO NOT REPORT WEATHER SUCH
AS PRECIPITATION OR FOG.

IAZ001>003-012>014-020>022-031>034-043>046-060500-
   NORTHWEST IOWA

CITY           SKY/WX    TMP DP  RH WIND       PRES   REMARKS
CARROLL *      MIX PCPN  39  36  87 NW18      29.76R WCI  30
CHEROKEE *     CLOUDY    33  29  85 W17       29.77S WCI  22
DENISON *      CLOUDY    36  32  87 NW9       29.77R WCI  29
LE MARS *      CLOUDY    32  25  74 W22G33    29.81R WCI  19
ORANGE CITY *  CLOUDY    30  27  86 W26G32    29.78R WCI  16
SHELDON *      CLOUDY    32  28  86 W26G32    29.74R WCI  18
SIOUX CITY     CLOUDY    34  25  69 NW20G29   29.82R WCI  23
SPENCER        CLOUDY    34  28  79 W26G35    29.74R WCI  21
STORM LAKE *   CLOUDY    34  30  86 NW21      29.74S WCI  22
$$

IAZ055>058-069>071-079>083-090>094-060500-
   SOUTHWEST IOWA

CITY           SKY/WX    TMP DP  RH WIND       PRES   REMARKS
ATLANTIC *     CLOUDY    41  36  81 W10G18    29.76R
AUDUBON *      RAIN      41  36  81 W3        29.76R
CLARINDA *       N/A     37  34  87 CALM      29.76R
COUNCIL BLFS * MIX PCPN  36  34  93 NW21G28   29.79R WCI  24
CRESTON *      MOCLDY    37  34  87 S10       29.76R WCI  30
HARLAN  *      LGT RAIN  37  36  93 NW15G26   29.81R WCI  28
LAMONI         CLOUDY    35  32  88 S5        29.76S WCI  31
RED OAK *      CLOUDY    41  36  81 NW3       29.74S
SHENANDOAH *   CLOUDY    39  36  87 CALM      29.75R
$$

IAZ047>049-059>061-072>074-084-060500-
   CENTRAL IOWA

CITY           SKY/WX    TMP DP  RH WIND       PRES   REMARKS
AMES           CLOUDY    37  36  96 SE8       29.77S WCI  31
ANKENY *       CLOUDY    37 N/A N/A SE9       29.79R WCI  31
BOONE *        CLOUDY    37  37 100 S9        29.74S WCI  31
CHARITON *       N/A     37  36  93 S12G18    29.78R WCI  30
DES MOINES     CLOUDY    39  36  89 SE13      29.78R WCI  31
GRINNELL*      CLOUDY    35  33  95 S14       29.80S FOG     WCI  25
KNOXVILLE *    CLOUDY    37  34  87 S10G17    29.78R WCI  30
MARSHALLTOWN   CLOUDY    34  34 100 SE15      29.78S FOG     WCI  24
NEWTON *       CLOUDY    36  34  93 SE13      29.78S FOG     WCI  27
PELLA *        CLOUDY    37  35  92 SE7       29.81R WCI  31
PERRY *        CLOUDY    40  38  93 SE7       29.74S
$$

IAZ004>006-015-016-023>025-035-036-060500-
   NORTH CENTRAL IOWA

CITY           SKY/WX    TMP DP  RH WIND       PRES   REMARKS
ALGONA *       CLOUDY    37  34  87 W20       29.73R WCI  27
CLARION *      CLOUDY    37  37 100 S18       29.72S WCI  27
ESTHERVILLE    CLOUDY    34  31  88 W16       29.71R WCI  24
FORT DODGE *   CLOUDY    41  34  75 S12       29.74R
MASON CITY     MIX PCPN  34  33  96 S16       29.74S FOG     WCI  24
WEBSTER CITY * CLOUDY    39  39 100 S14       29.72R WCI  31
IOWA FALLS *   CLOUDY    35  33  94 S15       29.77R FOG     WCI  25
$$

IAZ007>011-017>019-026>030-037>042-050>054-066-060500-
   NORTHEAST IOWA

CITY           SKY/WX    TMP DP  RH WIND       PRES   REMARKS
CEDAR RAPIDS   CLOUDY    33  33 100 SE15      29.81F WCI  23
CHARLES CITY * CLOUDY    34  34 100 S17       29.77S FOG     WCI  23
CLINTON *      CLOUDY    31  30  96 SE13      29.89S WCI  21
DECORAH *      CLOUDY    32  32 100 S13G20    29.77S FOG     WCI  22
DUBUQUE        LGT SNOW  30  30 100 SE17G23   29.86R FOG     WCI  18
MONTICELLO *   CLOUDY    32  32 100 SE12G17   29.85S FOG     WCI  23
OELWEIN *      CLOUDY    32  32 100 SE22      29.80S FOG     WCI  19
WATERLOO       CLOUDY    33  31  92 S10       29.80R FOG     WCI  25
$$

IAZ064-065-067-068-078-060500-
   EAST CENTRAL IOWA

CITY           SKY/WX    TMP DP  RH WIND       PRES   REMARKS
DAVENPORT      CLOUDY    32  29  88 SE16      29.87F WCI  21
IOWA CITY      CLOUDY    35  32  88 SE13      29.86S WCI  26
MUSCATINE *    CLOUDY    36  32  87 SE10G16   29.86F WCI  28
QUAD CITIES    CLOUDY    34  30  85 SE13      29.87F WCI  25
$$

IAZ062-063-075>077-085>089-095>099-060500-
   SOUTHEAST IOWA

CITY           SKY/WX    TMP DP  RH WIND       PRES   REMARKS
BURLINGTON     CLOUDY    35  34  96 SE7G18    29.86R WCI  29
FAIRFIELD *    CLOUDY    37  34  87 SE18G24   29.81F WCI  27
FORT MADISON * CLOUDY    36  36 100 SE9       29.86R WCI  29
KEOKUK *       CLOUDY    36  36 100 SE10      29.84R WCI  28
OSKALOOSA *    CLOUDY    37  35  94 S8        29.82R FOG     WCI  30
CENTERVILLE *  CLOUDY    36  36 100 SE12      29.80R WCI  27
OTTUMWA        CLOUDY    38  35  89 S12       29.80S WCI  30
WASHINGTON *   CLOUDY    34  34 100 SE15      29.84F FOG     WCI  24
$$

ABBREVIATIONS USED IN REMARKS
   TC - TEMPERATURES IN CELSIUS
  WCI - WIND CHILL INDEX
   HX - HEAT INDEX
  VSB - VISIBILITY
$$





USA.gov is the U.S. government's official web portal to all federal, state and local government web resources and services.